User: anonymous   Login
Location: Greenwich
(51.4790°N, 0.0090°E)
Time: 19:05:12
(UTC+01:00)
Language:

Explorer 7 - Orbit

View from above orbital plane
View from above orbital plane
View from above satellite
View from above satellite

Ground track
Ground track

The orbit data is extracted from the following two-line orbital elements,

1    22U 59009A   24110.08532792  .00011349  00000-0  67914-3 0  9999
2    22  50.2800 335.2873 0115501 238.8073 120.1516 15.05970523435450
Epoch (UTC): 19 April 2024 02:02:52
Eccentricity: 0.0115501
inclination: 50.2800°
perigee height: 468 km
apogee height: 628 km
right ascension of ascending node: 335.2873°
argument of perigee: 238.8073°
revolutions per day: 15.05970523
mean anomaly at epoch: 120.1516°
orbit number at epoch: 43545

The dashed part of the orbit path shows where the satellite is in the earth's shadow,  

DLR